Meteo Giornale » Osservazioni meteo Belgio » Bruxelles National

ore: 03:50 - Osservazioni Meteo Bruxelles National
Lat. 50° 54' N Lon. 4° 32' E Alt. 55 metri s.l.m.

molto_nuvoloso Europe/Brussels

15 °C

Molto Nuvoloso

Temp. 24 Ore

10 °C

20 °C

Ovest/Sud-Ovest

14.8 Km/h

Dew point 13 °C

Umidità 87 %

Visibilità  10 Km

Il sole sorge alle ore 07:30

Il sole tramonta alle ore 19:37

Data e Ora Cielo e Fenomeni T °C DP °C Um. % Pres. hPa Vis. km Vento km/h
Oggi h: 03:50 molto_nuvoloso Molto Nuvoloso 15 13 87 1018 10 O/SO 14.8
Oggi h: 03:20 molto_nuvoloso Molto Nuvoloso 15 13 87 1018 10 O/SO 14.8
Oggi h: 02:50 nuvoloso Nuvoloso 15 13 87 1018 10 O/SO 14.8
Oggi h: 02:20 poco_nuvoloso Poco Nuvoloso 14 13 93 1018 10 O/SO 14.8
Oggi h: 01:50 sereno Sereno 14 13 93 1019 10 SO 13
Oggi h: 01:20 poco_nuvoloso Poco Nuvoloso 15 13 87 1019 10 O/SO 14.8
Oggi h: 00:50 poco_nuvoloso Poco Nuvoloso 15 13 87 1019 10 O/SO 13
Ieri h: 23:50 poco_nuvoloso Poco Nuvoloso 16 13 82 1019 10 O/SO 13
Ieri h: 23:20 poco_nuvoloso Poco Nuvoloso 16 13 82 1019 10 O 13
Ieri h: 22:20 poco_nuvoloso Poco Nuvoloso 16 13 82 1019 10 O 13
Ieri h: 21:50 poco_nuvoloso Poco Nuvoloso 16 13 82 1019 10 O 11.1
Ieri h: 21:20 nuvoloso Nuvoloso 16 13 82 1018 10 O/SO 11.1
Ieri h: 20:50 nuvoloso Nuvoloso 17 12 72 1018 10 O/SO 9.3
Ieri h: 20:20 molto_nuvoloso Molto Nuvoloso 18 13 72 1018 10 O 13
Ieri h: 19:50 molto_nuvoloso Molto Nuvoloso 18 13 72 1018 10 O 13
Ieri h: 19:20 molto_nuvoloso Molto Nuvoloso 18 13 72 1018 10 O 13
Ieri h: 18:50 molto_nuvoloso Rovescio nelle Vicinanze 19 13 68 1018 10 O 14.8
Ieri h: 18:20 molto_nuvoloso Molto Nuvoloso 19 12 63 1018 10 O 16.7
Ieri h: 17:50 molto_nuvoloso Molto Nuvoloso 19 12 63 1018 10 O 22.2
Ieri h: 17:20 molto_nuvoloso Molto Nuvoloso 19 12 63 1019 10 O 18.5
Ieri h: 16:50 molto_nuvoloso Molto Nuvoloso 19 12 63 1019 10 O 22.2
Ieri h: 16:20 molto_nuvoloso Molto Nuvoloso 20 12 59 1019 10 O 18.5
Ieri h: 15:50 molto_nuvoloso Molto Nuvoloso 20 11 56 1019 10 O 18.5
Ieri h: 15:20 poco_nuvoloso Poco Nuvoloso 19 11 59 1019 10 O 20.3
Ieri h: 14:50 poco_nuvoloso Poco Nuvoloso 19 11 59 1019 10 O 22.2
Ieri h: 14:20 nuvoloso Nuvoloso 19 11 59 1020 10 O 24
Ieri h: 13:50 nuvoloso Nuvoloso 19 12 63 1020 10 O 22.2
Ieri h: 13:20 nuvoloso Nuvoloso 19 12 63 1020 10 O 24
Ieri h: 12:50 poco_nuvoloso Poco Nuvoloso 18 12 67 1020 10 O 20.3
Ieri h: 12:20 poco_nuvoloso Poco Nuvoloso 17 12 72 1020 10 O/SO 24
Ieri h: 11:50 poco_nuvoloso Poco Nuvoloso 17 12 72 1020 10 O/SO 22.2
Ieri h: 11:20 nuvoloso Nuvoloso 17 12 72 1020 10 O/SO 20.3
Ieri h: 10:50 sereno Sereno 16 12 77 1020 10 O/SO 18.5
Ieri h: 10:20 sereno Sereno 16 12 77 1021 10 O/SO 18.5
Ieri h: 09:50 sereno Sereno 15 11 76 1021 10 SO 14.8
Ieri h: 09:20 sereno Sereno 13 10 81 1021 10 S/SO 13
Ieri h: 08:50 sereno Sereno 12 9 81 1021 10 S/SO 13
Ieri h: 08:20 sereno Sereno 11 8 81 1021 10 S/SO 13
Ieri h: 07:50 sereno Sereno 10 8 87 1021 10 S/SO 13
Ieri h: 07:20 sereno Sereno 10 8 87 1022 10 SO 11.1
Ieri h: 06:50 sereno Sereno 10 8 87 1022 10 S/SO 11.1
Ieri h: 05:50 sereno Sereno 10 8 87 1021 10 S/SO 13
Ieri h: 05:20 sereno Sereno 10 8 87 1022 10 S/SO 11.1
Ieri h: 04:50 sereno Sereno 10 8 87 1022 10 SO 11.1